Starlink 31567

operational
NORAD ID: 59199 Int'l Des: 2024-045 Owner: SPXS Country: US Constellation: starlink
LEOCIRCULAR

Starlink 31567について

説明を読み込み中...

リアルタイム位置

3D地球を読み込み中...

次回通過

高度履歴

Altitude vs Time

uPlot chart will show altitude changes over time

軌道要素

1 59199U 24045X 25343.06730596 .00000767 00000-0 37387-4 0 9993
2 59199 42.9987 244.1821 0000807 323.5665 36.5131 15.27580393 99304
Epoch: Dec 9, 2025 • Age: 10 hours

現在のステータス

高度 486.3 km
速度 7.63 km/s
衛星直下点 41.93°N, 97.94°E
打ち上げ日 Mar 11, 2024
運用期間 1.7 years
タイプ internet

技術仕様

分類 Payload
質量 730.00 kg
乾燥質量 700.00 kg
総質量 730.00 kg
長さ 0.30 m
直径 4.10 m
スパン 29.00 m
形状 Box + pan
製造者 SPXS
バスタイプ Starlink V2M
フェーズステータス In Orbit
所有者/国 SPXS/US

大規模コンステレーション

Loading constellations...